Weather History for KFOD - August, 2014

Change the Weather History Date:

Tuesday, August 12, 2014

  Actual Average Record
Temperature  
Mean Temperature 64 °F -  
Max Temperature 75 °F 81 °F 95 °F (1965)
Min Temperature 53 °F 60 °F 47 °F (1952)
Degree Days  
Heating Degree Days 1    
Growing Degree Days 14 (Base 50)    
Moisture  
Dew Point 53 °F    
Average Humidity 73    
Maximum Humidity 100    
Minimum Humidity 44    
Precipitation  
Precipitation 0.00 in - - ()
Sea Level Pressure  
Sea Level Pressure 30.09 in    
Wind  
Wind Speed 5 mph (NNW)    
Max Wind Speed 12 mph    
Max Gust Speed 17 mph    
Visibility 10 miles    
Events      
Averages and records for this station are not official NWS values.
T = Trace of Precipitation, MM = Missing Value Source: NWS Daily Summary

Daily Weather History Graph

Daily Weather History Graph

Search for Another Location

Airport or City:

Trip Planner

Search our weather history database for the weather conditions in past years. The results will help you decide how hot, cold, wet, or windy it might be!

Date:

Astronomy

Aug. 12, 2014 Rise Set
Actual Time 6:20 AM CDT 8:22 PM CDT
Civil Twilight 5:49 AM CDT 8:53 PM CDT
Nautical Twilight 5:11 AM CDT 9:30 PM CDT
Astronomical Twilight 4:30 AM CDT 10:11 PM CDT
Moon 9:25 PM CDT (8/12) 8:42 AM CDT (8/12)
Length of Visible Light 15h 03m
Length of Day
14h 02m
Waning Gibbous, 94% of the Moon is Illuminated
Aug 12
Waning Gibbous
Aug 17
Last Quarter
Aug 25
New
Sep 2
First Quarter
Sep 8
Full

Hourly Weather History & Observations

Time (CDT) Temp. Dew Point Humidity Pressure Visibility Wind Dir Wind Speed Gust Speed Precip Events Conditions
12:35 AM 59.0 °F 51.8 °F 77% 30.08 in 10.0 mi North 4.6 mph - N/A   Clear
12:55 AM 59.0 °F 51.8 °F 77% 30.08 in 10.0 mi NNW 4.6 mph - N/A   Clear
1:15 AM 59.0 °F 51.8 °F 77% 30.08 in 10.0 mi NW 4.6 mph - N/A   Clear
1:35 AM 57.2 °F 51.8 °F 82% 30.08 in 10.0 mi NW 5.8 mph - N/A   Clear
1:55 AM 57.2 °F 51.8 °F 82% 30.07 in 10.0 mi NW 4.6 mph - N/A   Clear
2:15 AM 55.4 °F 51.8 °F 88% 30.07 in 10.0 mi NW 4.6 mph - N/A   Clear
2:35 AM 55.4 °F 51.8 °F 88% 30.07 in 10.0 mi NW 4.6 mph - N/A   Clear
2:55 AM 55.4 °F 51.8 °F 88% 30.07 in 10.0 mi WNW 4.6 mph - N/A   Clear
3:15 AM 55.4 °F 51.8 °F 88% 30.07 in 10.0 mi NW 4.6 mph - N/A   Clear
3:35 AM 53.6 °F 50.0 °F 88% 30.07 in 10.0 mi NW 3.5 mph - N/A   Clear
3:55 AM 53.6 °F 51.8 °F 94% 30.07 in 10.0 mi NW 4.6 mph - N/A   Clear
4:35 AM 53.6 °F 50.0 °F 88% 30.08 in 10.0 mi NW 3.5 mph - N/A   Clear
4:55 AM 53.6 °F 51.8 °F 94% 30.09 in 10.0 mi NW 4.6 mph - N/A   Clear
5:15 AM 53.6 °F 51.8 °F 94% 30.09 in 10.0 mi NNW 3.5 mph - N/A   Clear
5:35 AM 53.6 °F 51.8 °F 94% 30.09 in 10.0 mi NNW 4.6 mph - N/A   Clear
5:55 AM 55.4 °F 51.8 °F 88% 30.09 in 10.0 mi NNW 5.8 mph - N/A   Scattered Clouds
6:15 AM 55.4 °F 51.8 °F 88% 30.10 in 10.0 mi NNW 4.6 mph - N/A   Mostly Cloudy
6:35 AM 55.4 °F 51.8 °F 88% 30.10 in 10.0 mi NW 5.8 mph - N/A   Scattered Clouds
6:55 AM 55.4 °F 51.8 °F 88% 30.11 in 10.0 mi NW 5.8 mph - N/A   Mostly Cloudy
7:15 AM 55.4 °F 51.8 °F 88% 30.11 in 10.0 mi NW 5.8 mph - N/A   Mostly Cloudy
7:35 AM 55.4 °F 51.8 °F 88% 30.11 in 10.0 mi NW 5.8 mph - N/A   Mostly Cloudy
7:55 AM 57.2 °F 53.6 °F 88% 30.11 in 10.0 mi NNW 4.6 mph - N/A   Scattered Clouds
8:15 AM 59.0 °F 53.6 °F 82% 30.12 in 10.0 mi NNW 4.6 mph - N/A   Clear
8:35 AM 60.8 °F 55.4 °F 82% 30.12 in 10.0 mi North 6.9 mph - N/A   Clear
8:55 AM 60.8 °F 55.4 °F 82% 30.13 in 10.0 mi North 8.1 mph - N/A   Clear
9:15 AM 62.6 °F 55.4 °F 77% 30.13 in 10.0 mi NNW 6.9 mph - N/A   Clear
9:35 AM 64.4 °F 57.2 °F 77% 30.13 in 10.0 mi NW 4.6 mph - N/A   Clear
9:55 AM 64.4 °F 57.2 °F 77% 30.12 in 10.0 mi NNW 4.6 mph - N/A   Clear
10:15 AM 66.2 °F 59.0 °F 78% 30.12 in 10.0 mi North 5.8 mph - N/A   Clear
10:35 AM 68.0 °F 59.0 °F 73% 30.12 in 10.0 mi NW 5.8 mph - N/A   Clear
10:55 AM 69.8 °F 59.0 °F 68% 30.12 in 10.0 mi NNW 6.9 mph - N/A   Clear
12:35 PM 71.6 °F 55.4 °F 57% 30.12 in 10.0 mi North 8.1 mph - N/A   Mostly Cloudy
12:55 PM 73.4 °F 55.4 °F 53% 30.11 in 10.0 mi North 10.4 mph 17.3 mph N/A   Mostly Cloudy
1:15 PM 73.4 °F 55.4 °F 53% 30.11 in 10.0 mi NNW 9.2 mph - N/A   Scattered Clouds
1:35 PM 73.4 °F 53.6 °F 50% 30.11 in 10.0 mi NNW 6.9 mph - N/A   Partly Cloudy
1:55 PM 73.4 °F 51.8 °F 47% 30.10 in 10.0 mi North 6.9 mph 17.3 mph N/A   Partly Cloudy
2:15 PM 73.4 °F 53.6 °F 50% 30.10 in 10.0 mi North 11.5 mph 17.3 mph N/A   Clear
2:35 PM 73.4 °F 53.6 °F 50% 30.10 in 10.0 mi NNW 8.1 mph - N/A   Partly Cloudy
2:55 PM 73.4 °F 53.6 °F 50% 30.10 in 10.0 mi NNW 11.5 mph 17.3 mph N/A   Partly Cloudy
3:35 PM 75.2 °F 51.8 °F 44% 30.08 in 10.0 mi NNW 9.2 mph 17.3 mph N/A   Clear
3:55 PM 75.2 °F 53.6 °F 47% 30.08 in 10.0 mi North 9.2 mph - N/A   Clear
4:15 PM 75.2 °F 53.6 °F 47% 30.08 in 10.0 mi North 9.2 mph - N/A   Clear
4:35 PM 75.2 °F 53.6 °F 47% 30.08 in 10.0 mi NW 8.1 mph - N/A   Clear
4:55 PM 75.2 °F 53.6 °F 47% 30.08 in 10.0 mi NW 9.2 mph 17.3 mph N/A   Clear
5:15 PM 75.2 °F 51.8 °F 44% 30.08 in 10.0 mi North 5.8 mph - N/A   Clear
5:35 PM 75.2 °F 53.6 °F 47% 30.08 in 10.0 mi NNW 6.9 mph - N/A   Clear
5:55 PM 73.4 °F 51.8 °F 47% 30.08 in 10.0 mi NNW 6.9 mph - N/A   Clear
6:15 PM 73.4 °F 51.8 °F 47% 30.07 in 10.0 mi NNW 9.2 mph - N/A   Clear
6:55 PM 73.4 °F 51.8 °F 47% 30.07 in 10.0 mi NNW 4.6 mph - N/A   Clear
7:15 PM 71.6 °F 51.8 °F 50% 30.07 in 10.0 mi NNW 5.8 mph - N/A   Clear
7:35 PM 71.6 °F 53.6 °F 53% 30.07 in 10.0 mi Calm Calm - N/A   Clear
7:55 PM 69.8 °F 53.6 °F 56% 30.06 in 10.0 mi Calm Calm - N/A   Clear
8:15 PM 68.0 °F 55.4 °F 64% 30.07 in 10.0 mi Calm Calm - N/A   Clear
8:35 PM 62.6 °F 55.4 °F 77% 30.07 in 10.0 mi Calm Calm - N/A   Clear
8:55 PM 60.8 °F 55.4 °F 82% 30.07 in 10.0 mi Calm Calm - N/A   Clear
9:15 PM 60.8 °F 53.6 °F 77% 30.08 in 10.0 mi Calm Calm - N/A   Clear
9:55 PM 57.2 °F 53.6 °F 88% 30.08 in 10.0 mi Calm Calm - N/A   Clear
10:15 PM 57.2 °F 55.4 °F 94% 30.09 in 10.0 mi Calm Calm - N/A   Clear
10:35 PM 57.2 °F 55.4 °F 94% 30.09 in 10.0 mi Calm Calm - N/A   Clear
10:55 PM 55.4 °F 53.6 °F 94% 30.09 in 10.0 mi Calm Calm - N/A   Clear
11:15 PM 55.4 °F 55.4 °F 100% 30.09 in 10.0 mi Calm Calm - N/A   Clear
11:55 PM 57.2 °F 55.4 °F 94% 30.10 in 10.0 mi Calm Calm - N/A   Clear